{"data":{"norad_id":56459,"epoch":"2026-05-25T03:48:40.403808Z","epoch_age_seconds":68123,"freshness":"FRESH","line1":"1 56459U 23064M   26145.15880097  .00000409  00000+0  42107-4 0  9990","line2":"2 56459  69.9995 311.5170 0002946 264.7887  95.2936 14.98332011166693","mean_motion":14.98332011,"eccentricity":0.0002946,"inclination_deg":69.9995,"raan_deg":311.517,"arg_perigee_deg":264.7887,"mean_anomaly_deg":95.2936,"bstar":4.2107e-5,"rev_number":16669,"period_min":96.106870134806,"perigee_km":570.00214710616,"apogee_km":574.09719709336,"semimajor_km":6950.1866720998,"source":"CELESTRAK","updated_at":"2026-05-25T13:38:18.068341Z"}}